Leeuwarden, Netherlands

12:16 PM CET on December 05, 2016 (GMT +0100)
Leeuwarden Air Base

Weather History for EHLW - May, 2013

Change the Weather History Date:

Sunday, May 26, 2013

  Actual Average Record
Temperature  
Mean Temperature 48 °F -  
Max Temperature 50 °F 60 °F 80 °F (2005)
Min Temperature 46 °F 47 °F 39 °F (2001)
Degree Days  
Heating Degree Days 17    
Moisture  
Dew Point 45 °F    
Average Humidity 89    
Maximum Humidity 100    
Minimum Humidity 78    
Precipitation  
Precipitation 0.00 in - - ()
Sea Level Pressure  
Sea Level Pressure 29.87 in    
Wind  
Wind Speed 17 mph ()    
Max Wind Speed 22 mph    
Max Gust Speed -    
Visibility 6.3 miles    
Events Rain    
Averages and records for this station are not official NWS values.
T = Trace of Precipitation, MM = Missing Value Source: Averaged Metar Reports

Daily Weather History Graph

Daily Weather History Graph

Search for Another Location

Airport or City:

Trip Planner

Search our weather history database for the weather conditions in past years. The results will help you decide how hot, cold, wet, or windy it might be!

Date:

Astronomy

May. 26, 2013 Rise Set
Actual Time 5:22 AM CEST 9:46 PM CEST
Civil Twilight 4:34 AM CEST 10:34 PM CEST
Nautical Twilight 3:22 AM CEST 11:47 PM CEST
Astronomical Twilight 2:06 AM CEST 1:01 AM CEST
Moon 11:14 PM CEST (5/26) 6:36 AM CEST (5/26)
Length of Visible Light 17h 59m
Length of Day
16h 24m
Full, 98% of the Moon is Illuminated
May 26
Full
May 31
Last Quarter
Jun 8
New
Jun 16
First Quarter
Jun 23
Full

Hourly Weather History & Observations

Time (CEST) Temp. Windchill Dew Point Humidity Pressure Visibility Wind Dir Wind Speed Gust Speed Precip Events Conditions
12:03 AM 46.4 °F 39.5 °F 46.4 °F 100% 29.92 in 6.2 mi NNW 17.3 mph - N/A   Drizzle
12:10 AM 46.4 °F 40.1 °F 46.4 °F 100% 29.92 in 6.2 mi North 15.0 mph - N/A Rain Light Rain
12:25 AM 48.2 °F - 46.4 °F 93% 29.92 in 6.2 mi NNW 17.3 mph - N/A Rain Light Rain
12:55 AM 48.2 °F - 46.4 °F 93% 29.92 in 6.2 mi NNW 18.4 mph - N/A   Overcast
1:25 AM 48.2 °F - 46.4 °F 93% 29.92 in 6.2 mi NNW 16.1 mph - N/A   Overcast
1:55 AM 46.4 °F 39.8 °F 44.6 °F 93% 29.92 in 5.6 mi NNW 16.1 mph - N/A   Light Drizzle
2:00 AM 47 °F - 45 °F 92% 29.92 in 6 mi NNW 17.9 mph - - Rain Light Drizzle
2:25 AM 46.4 °F 39.5 °F 44.6 °F 93% 29.89 in 6.2 mi NNW 17.3 mph - N/A   Light Drizzle
2:55 AM 46.4 °F 39.2 °F 44.6 °F 93% 29.89 in 6.2 mi NNW 18.4 mph - N/A   Overcast
3:25 AM 46.4 °F 39.5 °F 44.6 °F 93% 29.89 in 6.2 mi NNW 17.3 mph - N/A   Overcast
3:55 AM 46.4 °F 39.2 °F 44.6 °F 93% 29.89 in 6.2 mi NNW 18.4 mph - N/A   Overcast
4:25 AM 46.4 °F 39.5 °F 44.6 °F 93% 29.89 in 6.2 mi NNW 17.3 mph - N/A   Overcast
4:55 AM 46.4 °F 39.2 °F 44.6 °F 93% 29.89 in 6.2 mi NNW 18.4 mph - N/A   Overcast
5:25 AM 46.4 °F 39.0 °F 44.6 °F 93% 29.89 in 6.2 mi NNW 19.6 mph - N/A   Overcast
5:55 AM 46.4 °F 39.2 °F 44.6 °F 93% 29.89 in 6.2 mi NNW 18.4 mph - N/A   Overcast
6:25 AM 46.4 °F 39.0 °F 44.6 °F 93% 29.89 in 6.2 mi NNW 19.6 mph - N/A   Overcast
6:55 AM 46.4 °F 39.5 °F 44.6 °F 93% 29.89 in 6.2 mi NNW 17.3 mph - N/A   Overcast
7:25 AM 48.2 °F - 44.6 °F 87% 29.89 in 6.2 mi NNW 20.7 mph - N/A   Overcast
7:36 AM 48.2 °F - 44.6 °F 87% 29.89 in 6.2 mi NNW 19.6 mph - N/A   Overcast
7:37 AM 48.2 °F - 44.6 °F 87% 29.89 in 6.2 mi NNW 18.4 mph - N/A   Overcast
7:55 AM 48.2 °F - 44.6 °F 87% 29.89 in 6.2 mi NNW 18.4 mph - N/A   Overcast
8:00 AM 47 °F - 44 °F 86% 29.89 in 8 mi NNW 17.9 mph - -   Partly Cloudy
8:25 AM 48.2 °F - 44.6 °F 87% 29.89 in 6.2 mi NNW 18.4 mph - N/A   Overcast
8:55 AM 48.2 °F - 44.6 °F 87% 29.89 in 6.2 mi NNW 18.4 mph - N/A   Overcast
9:25 AM 48.2 °F - 44.6 °F 87% 29.89 in 6.2 mi NNW 18.4 mph - N/A   Overcast
9:55 AM 48.2 °F - 44.6 °F 87% 29.89 in 6.2 mi NNW 20.7 mph - N/A   Overcast
9:59 AM 48.2 °F - 44.6 °F 87% 29.89 in 6.2 mi NNW 20.7 mph - N/A   Overcast
10:25 AM 48.2 °F - 44.6 °F 87% 29.89 in 6.2 mi NNW 19.6 mph - N/A   Overcast
10:43 AM 48.2 °F - 44.6 °F 87% 29.89 in 6.2 mi NNW 19.6 mph - N/A   Overcast
10:55 AM 48.2 °F - 44.6 °F 87% 29.89 in 6.2 mi NNW 21.9 mph - N/A   Overcast
11:25 AM 48.2 °F - 44.6 °F 87% 29.89 in 6.2 mi NNW 18.4 mph - N/A   Overcast
11:29 AM 48.2 °F - 44.6 °F 87% 29.89 in 6.2 mi NNW 18.4 mph - N/A   Overcast
11:55 AM 48.2 °F - 44.6 °F 87% 29.89 in 6.2 mi NNW 19.6 mph - N/A   Overcast
12:25 PM 48.2 °F - 44.6 °F 87% 29.86 in 6.2 mi NNW 21.9 mph - N/A   Overcast
12:55 PM 50.0 °F - 44.6 °F 82% 29.86 in 6.2 mi NNW 19.6 mph - N/A   Overcast
1:25 PM 50.0 °F - 44.6 °F 82% 29.86 in 6.2 mi NNW 18.4 mph - N/A   Overcast
1:55 PM 50.0 °F - 44.6 °F 82% 29.86 in 6.2 mi NNW 19.6 mph - N/A   Overcast
2:00 PM 50 °F - 45 °F 78% 29.88 in 10 mi NNW 20.1 mph - -   Partly Cloudy
2:12 PM 50.0 °F - 44.6 °F 82% 29.86 in 6.2 mi NNW 18.4 mph - N/A   Overcast
2:15 PM 50.0 °F - 44.6 °F 82% 29.86 in 6.2 mi NNW 18.4 mph - N/A   Overcast
2:25 PM 48.2 °F - 44.6 °F 87% 29.86 in 6.2 mi NNW 18.4 mph - N/A   Overcast
2:32 PM 50.0 °F - 44.6 °F 82% 29.86 in 6.2 mi NNW 18.4 mph - N/A   Overcast
2:36 PM 50.0 °F - 44.6 °F 82% 29.86 in 6.2 mi NNW 17.3 mph - N/A   Overcast
2:51 PM 50.0 °F - 44.6 °F 82% 29.86 in 6.2 mi NNW 18.4 mph - N/A   Overcast
2:55 PM 48.2 °F - 44.6 °F 87% 29.86 in 6.2 mi NNW 17.3 mph - N/A   Overcast
2:59 PM 48.2 °F - 44.6 °F 87% 29.86 in 6.2 mi NNW 18.4 mph - N/A   Overcast
3:25 PM 50.0 °F - 44.6 °F 82% 29.86 in 6.2 mi NNW 19.6 mph - N/A   Overcast
3:55 PM 50.0 °F - 44.6 °F 82% 29.86 in 6.2 mi NNW 18.4 mph - N/A   Overcast
4:25 PM 50.0 °F - 44.6 °F 82% 29.86 in 6.2 mi NNW 19.6 mph - N/A   Overcast
4:35 PM 48.2 °F - 44.6 °F 87% 29.86 in 6.2 mi NNW 18.4 mph - N/A   Overcast
4:40 PM 48.2 °F - 44.6 °F 87% 29.86 in 6.2 mi NW 18.4 mph - N/A   Overcast
4:44 PM 48.2 °F - 44.6 °F 87% 29.86 in 6.2 mi NW 18.4 mph - N/A   Overcast
4:55 PM 48.2 °F - 44.6 °F 87% 29.86 in 6.2 mi NNW 19.6 mph - N/A   Overcast
5:25 PM 48.2 °F - 44.6 °F 87% 29.86 in 6.2 mi NW 17.3 mph - N/A   Overcast
5:55 PM 48.2 °F - 44.6 °F 87% 29.83 in 6.2 mi NNW 18.4 mph - N/A   Overcast
6:25 PM 48.2 °F - 44.6 °F 87% 29.83 in 6.2 mi NNW 18.4 mph - N/A   Overcast
6:55 PM 48.2 °F - 44.6 °F 87% 29.83 in 6.2 mi NW 17.3 mph - N/A   Overcast
7:25 PM 48.2 °F - 44.6 °F 87% 29.83 in 6.2 mi NW 19.6 mph - N/A   Overcast
7:55 PM 48.2 °F - 44.6 °F 87% 29.83 in 6.2 mi NW 18.4 mph - N/A   Overcast
8:00 PM 47 °F - 44 °F 86% 29.85 in 9 mi NW 17.9 mph - -   Partly Cloudy
8:25 PM 48.2 °F - 44.6 °F 87% 29.83 in 6.2 mi NW 18.4 mph - N/A   Overcast
8:55 PM 46.4 °F 39.0 °F 44.6 °F 93% 29.83 in 6.2 mi NW 19.6 mph - N/A   Overcast
9:08 PM 46.4 °F 39.8 °F 44.6 °F 93% 29.83 in 6.2 mi NNW 16.1 mph - N/A   Overcast
9:25 PM 46.4 °F 39.5 °F 44.6 °F 93% 29.83 in 6.2 mi NW 17.3 mph - N/A   Overcast
9:51 PM 46.4 °F 39.5 °F 44.6 °F 93% 29.83 in 6.2 mi NW 17.3 mph - N/A   Overcast
9:55 PM 46.4 °F 39.5 °F 44.6 °F 93% 29.83 in 6.2 mi NW 17.3 mph - N/A   Overcast
10:25 PM 46.4 °F 39.5 °F 44.6 °F 93% 29.83 in 6.2 mi NW 17.3 mph - N/A   Overcast
10:55 PM 46.4 °F 40.1 °F 44.6 °F 93% 29.83 in 6.2 mi NW 15.0 mph - N/A   Overcast
11:25 PM 46.4 °F 40.4 °F 44.6 °F 93% 29.83 in 6.2 mi NNW 13.8 mph - N/A   Overcast
11:47 PM 46.4 °F 39.5 °F 44.6 °F 93% 29.83 in 6.2 mi NNW 17.3 mph - N/A   Overcast
11:55 PM 46.4 °F 39.5 °F 44.6 °F 93% 29.83 in 6.2 mi NW 17.3 mph - N/A   Overcast